When you browse on this site, cookies collect data to enhance your experience and personalize the content and advertising you see.
Visit our Privacy Policy to learn more. By continuing to use the site, you agree to this use of cookies and data.
  • în România
  • Lista ţărilor
  • Pe 7 zile
  • Temperatura apei
  • Meteo pe hartă
  • Widget-uri
  • user-avatar
    Intrare

    Meteo pe oră la Gloucester

    Astăzi, 25 Mai, Luni

    Timp Temperatura Precipitaţii Vânt Presiune Umiditate
    00:00 +9°C° 0 mm 1 m/s 769 mmHg 83%
    01:00 +8°C° 0 mm 1 m/s 769 mmHg 84%
    02:00 +8°C° 0 mm 1 m/s 769 mmHg 85%
    03:00 +6°C° 0 mm 0 m/s 769 mmHg 86%
    04:00 +7°C° 0 mm 0 m/s 769 mmHg 84%
    05:00 +9°C° 0 mm 0 m/s 769 mmHg 82%
    06:00 +10°C° 0 mm 0 m/s 770 mmHg 80%
    07:00 +13°C° 0 mm 1 m/s 770 mmHg 75%
    08:00 +14°C° 0 mm 1 m/s 770 mmHg 69%
    09:00 +16°C° 0 mm 2 m/s 770 mmHg 64%
    10:00 +17°C° 0 mm 3 m/s 770 mmHg 62%
    11:00 +18°C° 0 mm 3 m/s 770 mmHg 59%
    12:00 +19°C° 0 mm 4 m/s 770 mmHg 57%
    13:00 +19°C° 0 mm 4 m/s 770 mmHg 58%
    14:00 +20°C° 0 mm 4 m/s 770 mmHg 58%
    15:00 +20°C° 0 mm 4 m/s 770 mmHg 59%
    16:00 +19°C° 0 mm 4 m/s 769 mmHg 65%
    17:00 +19°C° 0 mm 3 m/s 769 mmHg 70%
    18:00 +18°C° 0 mm 2 m/s 769 mmHg 76%
    19:00 +16°C° 0 mm 2 m/s 770 mmHg 79%
    20:00 +14°C° 0 mm 1 m/s 770 mmHg 82%
    21:00 +12°C° 0 mm 1 m/s 770 mmHg 85%
    22:00 +12°C° 0 mm 1 m/s 770 mmHg 86%
    23:00 +11°C° 0 mm 1 m/s 770 mmHg 86%

    Mâine, 26 Mai, Marţi

    Timp Temperatura Precipitaţii Vânt Presiune Umiditate
    00:00 +11°C° 0 mm 1 m/s 770 mmHg 87%
    01:00 +11°C° 0 mm 1 m/s 770 mmHg 86%
    02:00 +11°C° 0 mm 1 m/s 770 mmHg 85%
    03:00 +11°C° 0 mm 1 m/s 770 mmHg 84%
    04:00 +12°C° 0 mm 1 m/s 770 mmHg 84%
    05:00 +12°C° 0 mm 1 m/s 770 mmHg 83%
    06:00 +13°C° 0 mm 1 m/s 770 mmHg 82%
    07:00 +14°C° 0 mm 1 m/s 771 mmHg 81%
    08:00 +14°C° 0 mm 1 m/s 771 mmHg 80%
    09:00 +15°C° 0 mm 2 m/s 771 mmHg 78%
    10:00 +16°C° 0 mm 2 m/s 771 mmHg 76%
    11:00 +17°C° 0 mm 2 m/s 771 mmHg 73%
    12:00 +18°C° 0 mm 2 m/s 771 mmHg 71%
    13:00 +19°C° 0 mm 2 m/s 771 mmHg 72%
    14:00 +20°C° 0 mm 2 m/s 771 mmHg 73%
    15:00 +20°C° 0 mm 2 m/s 770 mmHg 74%
    16:00 +20°C° 0.1 mm 2 m/s 770 mmHg 77%
    17:00 +20°C° 0.1 mm 2 m/s 770 mmHg 80%
    18:00 +19°C° 0.1 mm 2 m/s 770 mmHg 83%
    19:00 +18°C° 0.1 mm 2 m/s 770 mmHg 87%
    20:00 +17°C° 0.1 mm 2 m/s 771 mmHg 90%
    21:00 +16°C° 0.1 mm 2 m/s 771 mmHg 93%
    22:00 +15°C° 0 mm 2 m/s 771 mmHg 93%
    23:00 +14°C° 0 mm 2 m/s 771 mmHg 93%

    Poimâine, 27 Mai, Miercuri

    Timp Temperatura Precipitaţii Vânt Presiune Umiditate
    00:00 +12°C° 0 mm 3 m/s 771 mmHg 92%
    01:00 +12°C° 0 mm 2 m/s 771 mmHg 90%
    02:00 +12°C° 0 mm 2 m/s 771 mmHg 89%
    03:00 +10°C° 0 mm 2 m/s 771 mmHg 87%
    04:00 +10°C° 0 mm 2 m/s 771 mmHg 86%
    05:00 +10°C° 0 mm 3 m/s 771 mmHg 86%
    06:00 +10°C° 0 mm 3 m/s 771 mmHg 85%
    07:00 +12°C° 0 mm 3 m/s 771 mmHg 80%
    08:00 +14°C° 0 mm 3 m/s 771 mmHg 75%
    09:00 +16°C° 0 mm 3 m/s 771 mmHg 70%
    10:00 +17°C° 0 mm 3 m/s 771 mmHg 67%
    11:00 +18°C° 0 mm 3 m/s 771 mmHg 63%
    12:00 +20°C° 0 mm 3 m/s 771 mmHg 59%
    13:00 +20°C° 0 mm 3 m/s 771 mmHg 59%
    14:00 +20°C° 0 mm 3 m/s 770 mmHg 60%
    15:00 +20°C° 0 mm 3 m/s 770 mmHg 60%
    16:00 +20°C° 0 mm 3 m/s 770 mmHg 65%
    17:00 +20°C° 0 mm 3 m/s 770 mmHg 70%
    18:00 +19°C° 0 mm 2 m/s 770 mmHg 75%
    19:00 +17°C° 0 mm 2 m/s 770 mmHg 80%
    20:00 +16°C° 0 mm 2 m/s 770 mmHg 85%
    21:00 +14°C° 0 mm 2 m/s 770 mmHg 90%
    22:00 +13°C° 0 mm 2 m/s 770 mmHg 91%
    23:00 +12°C° 0 mm 2 m/s 770 mmHg 93%

    28 Mai, Joi

    Timp Temperatura Precipitaţii Vânt Presiune Umiditate
    00:00 +10°C° 0 mm 2 m/s 770 mmHg 94%
    01:00 +11°C° 0 mm 1 m/s 770 mmHg 94%
    02:00 +10°C° 0 mm 1 m/s 770 mmHg 94%
    03:00 +10°C° 0 mm 1 m/s 769 mmHg 94%
    04:00 +10°C° 0 mm 1 m/s 769 mmHg 92%
    05:00 +11°C° 0 mm 1 m/s 769 mmHg 90%
    06:00 +12°C° 0 mm 1 m/s 769 mmHg 89%
    07:00 +13°C° 0 mm 2 m/s 768 mmHg 81%
    08:00 +15°C° 0 mm 2 m/s 768 mmHg 73%
    09:00 +16°C° 0 mm 3 m/s 768 mmHg 66%
    10:00 +17°C° 0 mm 3 m/s 768 mmHg 63%
    11:00 +18°C° 0 mm 3 m/s 767 mmHg 60%
    12:00 +19°C° 0 mm 3 m/s 767 mmHg 58%
    13:00 +20°C° 0 mm 3 m/s 767 mmHg 58%
    14:00 +20°C° 0 mm 3 m/s 766 mmHg 58%
    15:00 +20°C° 0 mm 3 m/s 766 mmHg 58%
    16:00 +20°C° 0 mm 3 m/s 765 mmHg 63%
    17:00 +20°C° 0 mm 3 m/s 765 mmHg 68%
    18:00 +19°C° 0 mm 3 m/s 765 mmHg 73%
    19:00 +17°C° 0 mm 3 m/s 765 mmHg 76%
    20:00 +14°C° 0 mm 3 m/s 765 mmHg 79%
    21:00 +12°C° 0 mm 3 m/s 765 mmHg 81%
    22:00 +12°C° 0 mm 2 m/s 765 mmHg 80%
    23:00 +10°C° 0 mm 2 m/s 765 mmHg 78%

    29 Mai, Vineri

    Timp Temperatura Precipitaţii Vânt Presiune Umiditate
    00:00 +9°C° 0 mm 2 m/s 765 mmHg 76%
    01:00 +9°C° 0 mm 1 m/s 764 mmHg 75%
    02:00 +9°C° 0 mm 1 m/s 764 mmHg 74%
    03:00 +8°C° 0 mm 1 m/s 764 mmHg 73%
    04:00 +9°C° 0 mm 1 m/s 764 mmHg 73%
    05:00 +10°C° 0 mm 1 m/s 763 mmHg 73%
    06:00 +11°C° 0 mm 1 m/s 763 mmHg 73%
    07:00 +13°C° 0 mm 2 m/s 763 mmHg 69%
    08:00 +15°C° 0 mm 2 m/s 763 mmHg 66%
    09:00 +16°C° 0 mm 3 m/s 763 mmHg 62%
    10:00 +17°C° 0 mm 3 m/s 763 mmHg 62%
    11:00 +18°C° 0 mm 3 m/s 762 mmHg 63%
    12:00 +19°C° 0 mm 4 m/s 762 mmHg 63%
    13:00 +20°C° 0 mm 3 m/s 762 mmHg 64%
    14:00 +20°C° 0 mm 3 m/s 762 mmHg 65%
    15:00 +20°C° 0 mm 3 m/s 761 mmHg 65%
    16:00 +19°C° 0 mm 3 m/s 761 mmHg 69%
    17:00 +18°C° 0 mm 3 m/s 761 mmHg 73%
    18:00 +18°C° 0 mm 4 m/s 761 mmHg 77%
    19:00 +15°C° 0 mm 4 m/s 761 mmHg 79%
    20:00 +14°C° 0 mm 3 m/s 761 mmHg 80%
    21:00 +13°C° 0 mm 3 m/s 761 mmHg 81%
    22:00 +12°C° 0 mm 3 m/s 762 mmHg 84%
    23:00 +11°C° 0 mm 3 m/s 762 mmHg 87%

    30 Mai, Sâmbătă

    Timp Temperatura Precipitaţii Vânt Presiune Umiditate
    00:00 +9°C° 0 mm 2 m/s 762 mmHg 90%
    01:00 +9°C° 0 mm 2 m/s 762 mmHg 91%
    02:00 +8°C° 0 mm 2 m/s 761 mmHg 91%
    03:00 +7°C° 0 mm 2 m/s 761 mmHg 91%
    04:00 +8°C° 0 mm 2 m/s 761 mmHg 90%
    05:00 +8°C° 0 mm 2 m/s 761 mmHg 89%
    06:00 +9°C° 0 mm 2 m/s 761 mmHg 88%
    07:00 +12°C° 0 mm 2 m/s 761 mmHg 83%
    08:00 +13°C° 0 mm 3 m/s 762 mmHg 78%
    09:00 +16°C° 0 mm 3 m/s 762 mmHg 73%
    10:00 +17°C° 0 mm 3 m/s 762 mmHg 69%
    11:00 +18°C° 0 mm 3 m/s 762 mmHg 66%
    12:00 +20°C° 0 mm 4 m/s 762 mmHg 62%
    13:00 +20°C° 0 mm 3 m/s 761 mmHg 61%
    14:00 +20°C° 0 mm 3 m/s 761 mmHg 60%
    15:00 +20°C° 0 mm 3 m/s 761 mmHg 59%
    16:00 +20°C° 0 mm 2 m/s 761 mmHg 64%
    17:00 +19°C° 0 mm 2 m/s 761 mmHg 68%
    18:00 +19°C° 0 mm 2 m/s 761 mmHg 73%
    19:00 +17°C° 0 mm 2 m/s 761 mmHg 76%
    20:00 +15°C° 0 mm 2 m/s 761 mmHg 78%
    21:00 +12°C° 0 mm 3 m/s 762 mmHg 81%
    22:00 +12°C° 0 mm 2 m/s 762 mmHg 81%
    23:00 +12°C° 0 mm 2 m/s 762 mmHg 82%
    Arată mai mult